• în Republica Moldova
  • Lista ţărilor
  • Pe 7 zile
  • Temperatura apei
  • Hartă satelitară
  • Meteo pe hartă
  • Widget-uri
  • user-avatar
    Intrare

    Meteo pe oră la Coasta de Aur

    Astăzi, 19 Octombrie, Vineri

    Timp Temperatura Precipitaţii Vânt Presiune Umiditate
    00:00 +19°C° 0.1 mm 2 m/s 761 mmHg 94%
    01:00 +19°C° 0.1 mm 2 m/s 761 mmHg 94%
    02:00 +19°C° 0 mm 2 m/s 761 mmHg 94%
    03:00 +19°C° 0 mm 2 m/s 760 mmHg 94%
    04:00 +18°C° 0 mm 2 m/s 760 mmHg 94%
    05:00 +19°C° 0 mm 2 m/s 760 mmHg 90%
    06:00 +20°C° 0 mm 2 m/s 761 mmHg 87%
    07:00 +22°C° 0 mm 1 m/s 761 mmHg 83%
    08:00 +24°C° 0 mm 2 m/s 761 mmHg 76%
    09:00 +25°C° 0 mm 2 m/s 761 mmHg 68%
    10:00 +26°C° 0 mm 2 m/s 761 mmHg 62%
    11:00 +27°C° 0 mm 2 m/s 760 mmHg 61%
    12:00 +27°C° 0 mm 3 m/s 760 mmHg 61%
    13:00 +27°C° 0 mm 3 m/s 759 mmHg 61%
    14:00 +27°C° 0 mm 3 m/s 759 mmHg 62%
    15:00 +26°C° 0 mm 3 m/s 759 mmHg 64%
    16:00 +26°C° 0 mm 3 m/s 759 mmHg 65%
    17:00 +24°C° 0 mm 3 m/s 759 mmHg 72%
    18:00 +22°C° 0 mm 3 m/s 759 mmHg 79%
    19:00 +20°C° 0 mm 2 m/s 760 mmHg 85%
    20:00 +19°C° 0 mm 2 m/s 760 mmHg 87%
    21:00 +19°C° 0 mm 2 m/s 760 mmHg 89%
    22:00 +19°C° 0 mm 2 m/s 761 mmHg 91%
    23:00 +19°C° 0 mm 1 m/s 760 mmHg 91%

    Mâine, 20 Octombrie, Sâmbătă

    Timp Temperatura Precipitaţii Vânt Presiune Umiditate
    00:00 +19°C° 0 mm 1 m/s 760 mmHg 92%
    01:00 +19°C° 0 mm 1 m/s 760 mmHg 93%
    02:00 +19°C° 0 mm 1 m/s 760 mmHg 93%
    03:00 +19°C° 0 mm 1 m/s 759 mmHg 94%
    04:00 +18°C° 0 mm 1 m/s 759 mmHg 94%
    05:00 +20°C° 0 mm 1 m/s 759 mmHg 89%
    06:00 +21°C° 0 mm 1 m/s 760 mmHg 85%
    07:00 +22°C° 0 mm 1 m/s 760 mmHg 80%
    08:00 +24°C° 0 mm 1 m/s 760 mmHg 72%
    09:00 +26°C° 0 mm 1 m/s 760 mmHg 63%
    10:00 +28°C° 0 mm 2 m/s 760 mmHg 55%
    11:00 +28°C° 0 mm 2 m/s 759 mmHg 54%
    12:00 +29°C° 0 mm 2 m/s 758 mmHg 53%
    13:00 +29°C° 0 mm 3 m/s 758 mmHg 52%
    14:00 +28°C° 0 mm 3 m/s 758 mmHg 54%
    15:00 +28°C° 0 mm 3 m/s 757 mmHg 57%
    16:00 +27°C° 0 mm 4 m/s 757 mmHg 60%
    17:00 +25°C° 0 mm 4 m/s 757 mmHg 67%
    18:00 +22°C° 0 mm 4 m/s 757 mmHg 75%
    19:00 +20°C° 0 mm 4 m/s 757 mmHg 82%
    20:00 +20°C° 0 mm 3 m/s 757 mmHg 85%
    21:00 +20°C° 0 mm 3 m/s 758 mmHg 88%
    22:00 +19°C° 0 mm 3 m/s 758 mmHg 91%
    23:00 +19°C° 0 mm 3 m/s 758 mmHg 91%

    Poimâine, 21 Octombrie, Duminică

    Timp Temperatura Precipitaţii Vânt Presiune Umiditate
    00:00 +19°C° 0 mm 3 m/s 758 mmHg 91%
    01:00 +19°C° 0 mm 3 m/s 757 mmHg 91%
    02:00 +19°C° 0.1 mm 3 m/s 757 mmHg 91%
    03:00 +19°C° 0.1 mm 3 m/s 757 mmHg 91%
    04:00 +19°C° 0.1 mm 2 m/s 756 mmHg 91%
    05:00 +19°C° 0 mm 3 m/s 756 mmHg 90%
    06:00 +20°C° 0 mm 3 m/s 757 mmHg 89%
    07:00 +20°C° 0 mm 4 m/s 757 mmHg 87%
    08:00 +22°C° 0 mm 4 m/s 757 mmHg 81%
    09:00 +23°C° 0 mm 4 m/s 756 mmHg 74%
    10:00 +26°C° 0 mm 3 m/s 756 mmHg 68%
    11:00 +27°C° 0 mm 4 m/s 756 mmHg 61%
    12:00 +29°C° 0 mm 4 m/s 755 mmHg 55%
    13:00 +32°C° 0 mm 5 m/s 754 mmHg 48%
    14:00 +30°C° 0.1 mm 5 m/s 754 mmHg 52%
    15:00 +29°C° 0.1 mm 6 m/s 754 mmHg 55%
    16:00 +29°C° 0.1 mm 6 m/s 753 mmHg 59%
    17:00 +27°C° 0.2 mm 6 m/s 754 mmHg 68%
    18:00 +25°C° 0.2 mm 5 m/s 754 mmHg 77%
    19:00 +22°C° 0.2 mm 5 m/s 754 mmHg 86%
    20:00 +22°C° 0.1 mm 5 m/s 755 mmHg 88%
    21:00 +21°C° 0.1 mm 5 m/s 755 mmHg 90%
    22:00 +21°C° 0.1 mm 5 m/s 756 mmHg 92%
    23:00 +20°C° 0.1 mm 5 m/s 755 mmHg 92%

    22 Octombrie, Luni

    Timp Temperatura Precipitaţii Vânt Presiune Umiditate
    00:00 +20°C° 0.1 mm 4 m/s 755 mmHg 92%
    01:00 +19°C° 0.1 mm 4 m/s 755 mmHg 92%
    02:00 +18°C° 0 mm 4 m/s 755 mmHg 89%
    03:00 +18°C° 0 mm 3 m/s 755 mmHg 86%
    04:00 +17°C° 0 mm 3 m/s 755 mmHg 83%
    05:00 +18°C° 0 mm 3 m/s 756 mmHg 76%
    06:00 +19°C° 0 mm 3 m/s 756 mmHg 68%
    07:00 +20°C° 0 mm 3 m/s 756 mmHg 61%
    08:00 +24°C° 0 mm 2 m/s 756 mmHg 50%
    09:00 +27°C° 0 mm 2 m/s 756 mmHg 38%
    10:00 +30°C° 0 mm 2 m/s 756 mmHg 27%
    11:00 +31°C° 0 mm 3 m/s 756 mmHg 26%
    12:00 +33°C° 0 mm 3 m/s 755 mmHg 25%
    13:00 +34°C° 0 mm 4 m/s 755 mmHg 25%
    14:00 +34°C° 0 mm 4 m/s 755 mmHg 28%
    15:00 +33°C° 0 mm 4 m/s 754 mmHg 30%
    16:00 +33°C° 0 mm 5 m/s 754 mmHg 33%
    17:00 +29°C° 0 mm 4 m/s 755 mmHg 45%
    18:00 +26°C° 0 mm 4 m/s 755 mmHg 57%
    19:00 +22°C° 0 mm 4 m/s 756 mmHg 69%
    20:00 +22°C° 0 mm 4 m/s 756 mmHg 74%
    21:00 +21°C° 0 mm 4 m/s 757 mmHg 79%
    22:00 +21°C° 0 mm 3 m/s 757 mmHg 84%
    23:00 +20°C° 0 mm 3 m/s 757 mmHg 86%

    23 Octombrie, Marţi

    Timp Temperatura Precipitaţii Vânt Presiune Umiditate
    00:00 +20°C° 0 mm 3 m/s 756 mmHg 87%
    01:00 +20°C° 0 mm 3 m/s 756 mmHg 89%
    02:00 +19°C° 0 mm 3 m/s 756 mmHg 89%
    03:00 +19°C° 0 mm 3 m/s 757 mmHg 89%
    04:00 +19°C° 0 mm 3 m/s 757 mmHg 90%
    05:00 +20°C° 0 mm 3 m/s 757 mmHg 83%
    06:00 +21°C° 0 mm 3 m/s 758 mmHg 76%
    07:00 +24°C° 0 mm 3 m/s 758 mmHg 69%
    08:00 +26°C° 0 mm 3 m/s 758 mmHg 60%
    09:00 +29°C° 0 mm 3 m/s 758 mmHg 52%
    10:00 +33°C° 0 mm 3 m/s 758 mmHg 44%
    11:00 +33°C° 0 mm 4 m/s 757 mmHg 42%
    12:00 +34°C° 0 mm 4 m/s 757 mmHg 40%
    13:00 +35°C° 0 mm 5 m/s 756 mmHg 38%
    14:00 +34°C° 0 mm 5 m/s 756 mmHg 42%
    15:00 +33°C° 0 mm 5 m/s 756 mmHg 46%
    16:00 +32°C° 0 mm 5 m/s 756 mmHg 50%
    17:00 +29°C° 0 mm 5 m/s 756 mmHg 61%
    18:00 +27°C° 0 mm 5 m/s 756 mmHg 71%
    19:00 +25°C° 0 mm 5 m/s 757 mmHg 81%
    20:00 +25°C° 0 mm 5 m/s 757 mmHg 84%
    21:00 +23°C° 0 mm 5 m/s 757 mmHg 87%
    22:00 +23°C° 0 mm 4 m/s 758 mmHg 91%
    23:00 +22°C° 0.1 mm 4 m/s 757 mmHg 91%

    24 Octombrie, Miercuri

    Timp Temperatura Precipitaţii Vânt Presiune Umiditate
    00:00 +22°C° 0.1 mm 5 m/s 757 mmHg 92%
    01:00 +22°C° 0.1 mm 5 m/s 757 mmHg 93%
    02:00 +22°C° 0 mm 4 m/s 757 mmHg 92%
    03:00 +22°C° 0 mm 4 m/s 757 mmHg 92%
    04:00 +22°C° 0 mm 4 m/s 758 mmHg 92%
    05:00 +23°C° 0 mm 4 m/s 758 mmHg 87%
    06:00 +23°C° 0 mm 4 m/s 759 mmHg 83%
    07:00 +25°C° 0 mm 4 m/s 759 mmHg 79%
    08:00 +27°C° 0 mm 4 m/s 759 mmHg 69%
    09:00 +30°C° 0 mm 4 m/s 759 mmHg 58%
    10:00 +33°C° 0 mm 5 m/s 758 mmHg 48%
    11:00 +34°C° 0 mm 5 m/s 758 mmHg 45%
    12:00 +35°C° 0 mm 5 m/s 757 mmHg 41%
    13:00 +36°C° 0 mm 5 m/s 757 mmHg 38%
    14:00 +34°C° 0 mm 6 m/s 757 mmHg 45%
    15:00 +33°C° 0 mm 6 m/s 757 mmHg 52%
    16:00 +30°C° 0 mm 6 m/s 756 mmHg 59%
    17:00 +28°C° 1.2 mm 6 m/s 757 mmHg 67%
    18:00 +26°C° 1.2 mm 6 m/s 757 mmHg 76%
    19:00 +25°C° 1.2 mm 5 m/s 757 mmHg 84%
    20:00 +23°C° 2.3 mm 5 m/s 758 mmHg 87%
    21:00 +22°C° 2.3 mm 4 m/s 759 mmHg 90%
    22:00 +22°C° 2.3 mm 4 m/s 760 mmHg 93%
    23:00 +21°C° 4.9 mm 5 m/s 760 mmHg 93%
    Arată mai mult